DW0416 Weather Reports


Display with metric or nautical units.
time (UTC)temp
F
wind
direction
speed
MPH
gust
MPH
rain 1hr
in
rain 24hr
in
rain mn
in
humidity
%
barometer
mb
20260905140026 45 174 0.0 1.0 0.00 0.00 0.00 79 1022.3
20260905134529 45 141 0.0 1.0 0.00 0.00 0.00 77 1022.1
20260905133030 45 68 0.0 1.0 0.00 0.00 0.00 75 1022.0
20260905131537 45 68 0.0 1.0 0.00 0.00 0.00 75 1021.9
20260905130021 45 182 0.0 0.0 0.00 0.00 0.00 75 1021.6
20260905124538 46 148 0.0 0.0 0.00 0.00 0.00 74 1021.5
20260905123028 46 148 0.0 0.0 0.00 0.00 0.00 72 1021.3
20260905121535 47 148 0.0 1.0 0.00 0.00 0.00 71 1021.1
20260905120035 47 153 0.0 0.0 0.00 0.00 0.00 72 1021.1
20260905114536 48 151 0.0 0.0 0.00 0.00 0.00 68 1021.1
20260905113036 48 150 0.0 0.0 0.00 0.00 0.00 66 1021.0
20260905111533 48 167 0.0 0.0 0.00 0.00 0.00 67 1021.0
20260905110034 49 13 0.0 0.0 0.00 0.00 0.00 65 1020.9
20260905104516 49 14 0.0 0.0 0.00 0.00 0.00 64 1020.8
20260905103033 50 295 0.0 0.0 0.00 0.00 0.00 63 1020.7
20260905101508 50 359 0.0 0.0 0.00 0.00 0.00 63 1020.5
20260905100018 51 271 0.0 2.0 0.00 0.00 0.00 62 1020.4
20260905094514 50 61 0.0 2.0 0.00 0.00 0.00 62 1020.4
20260905093020 50 126 0.0 1.0 0.00 0.00 0.00 64 1020.3
20260905091525 50 131 0.0 2.0 0.00 0.00 0.00 68 1020.3
20260905090016 52 43 0.0 1.0 0.00 0.00 0.00 58 1020.2
20260905084529 51 31 0.0 1.0 0.00 0.00 0.00 62 1020.3
20260905083020 50 23 0.0 2.0 0.00 0.00 0.00 68 1020.3
20260905081521 52 158 0.0 3.0 0.00 0.00 0.00 61 1020.1
20260905080035 52 41 3.0 5.0 0.00 0.00 0.00 57 1019.9
20260905074505 52 60 1.0 3.0 0.00 0.00 0.00 60 1020.0
20260905073024 54 86 0.0 7.0 0.00 0.00 0.00 56 1019.8
20260905071522 54 21 2.0 8.0 0.00 0.00 0.00 58 1019.8
20260905070029 52 51 3.0 10.0 0.00 0.00 0.00 60 1020.1
20260905064530 53 150 1.0 2.0 0.00 0.00 0.00 58 1019.4
20260905063018 54 138 0.0 0.0 0.00 0.00 0.00 52 1019.5
20260905061514 54 59 0.0 0.0 0.00 0.00 0.00 51 1019.2
20260905060022 54 59 0.0 0.0 0.00 0.00 0.00 49 1018.9
20260905054527 54 107 0.0 0.0 0.00 0.00 0.00 52 1018.7
20260905053032 54 141 0.0 1.0 0.00 0.00 0.00 54 1018.7
20260905051525 56 139 0.0 2.0 0.00 0.00 0.00 51 1018.5
20260905050027 57 42 2.0 3.0 0.00 0.00 0.00 43 1018.5
20260905044525 57 88 1.0 2.0 0.00 0.00 0.00 43 1018.6
20260905043030 58 287 1.0 4.0 0.00 0.00 0.00 43 1018.7
20260905041537 58 25 0.0 0.0 0.00 0.00 0.00 45 1018.5
20260905040015 60 36 0.0 0.0 0.00 0.00 0.00 38 1018.6
20260905034544 61 253 0.0 0.0 0.00 0.00 0.00 37 1018.6
20260905033033 62 359 2.0 3.0 0.00 0.00 0.00 35 1018.2
20260905031538 66 68 0.0 3.0 0.00 0.00 0.00 29 1018.1
20260905030038 67 45 1.0 5.0 0.00 0.00 0.00 28 1018.1
20260905024539 68 60 0.0 3.0 0.00 0.00 0.00 27 1017.9
20260905023032 71 133 2.0 5.0 0.00 0.00 0.00 24 1017.8
20260905021528 71 46 2.0 6.0 0.00 0.00 0.00 24 1017.7
20260905020007 71 113 2.0 4.0 0.00 0.00 0.00 24 1017.7
20260905014515 72 59 1.0 4.0 0.00 0.00 0.00 23 1017.6
20260905013036 75 349 2.0 4.0 0.00 0.00 0.00 22 1017.5
20260905011523 78 216 1.0 2.0 0.00 0.00 0.00 21 1017.4
20260905010032 78 234 0.0 7.0 0.00 0.00 0.00 23 1017.2
20260905004508 79 162 3.0 8.0 0.00 0.00 0.00 21 1017.1
20260905003017 79 146 3.0 8.0 0.00 0.00 0.00 20 1016.9
20260905001520 79 148 4.0 10.0 0.00 0.00 0.00 20 1016.8
20260905000028 80 135 6.0 11.0 0.00 0.00 0.00 19 1016.7
20260904234543 79 176 5.0 12.0 0.00 0.00 0.00 20 1016.6
20260904233039 80 179 5.0 16.0 0.00 0.00 0.00 19 1016.6
20260904231517 82 122 8.0 14.0 0.00 0.00 0.00 17 1016.3
20260904230033 81 148 6.0 14.0 0.00 0.00 0.00 19 1016.2
20260904224540 80 217 5.0 12.0 0.00 0.00 0.00 18 1016.2
20260904223040 79 213 4.0 14.0 0.00 0.00 0.00 21 1016.3
20260904221518 78 241 3.0 11.0 0.00 0.00 0.00 20 1016.6
20260904220024 77 266 3.0 9.0 0.00 0.00 0.00 20 1016.6
20260904214540 79 183 8.0 16.0 0.00 0.00 0.00 19 1016.8
20260904213033 79 152 7.0 15.0 0.00 0.00 0.00 18 1016.8
20260904211532 78 165 7.0 18.0 0.00 0.00 0.00 20 1016.9
20260904210016 78 152 3.0 10.0 0.00 0.00 0.00 20 1016.9
20260904204524 78 151 7.0 13.0 0.00 0.00 0.00 19 1016.9
20260904203032 77 155 3.0 7.0 0.00 0.00 0.00 21 1017.0
20260904201533 77 248 5.0 12.0 0.00 0.00 0.00 21 1017.1
20260904200034 77 139 6.0 11.0 0.00 0.00 0.00 19 1017.3
20260904194524 75 221 5.0 10.0 0.00 0.00 0.00 21 1017.1
20260904193036 75 146 8.0 16.0 0.00 0.00 0.00 21 1017.3
20260904191534 74 160 8.0 13.0 0.00 0.00 0.00 22 1017.6
20260904190032 75 161 7.0 13.0 0.00 0.00 0.00 21 1017.5
20260904184538 74 230 6.0 11.0 0.00 0.00 0.00 23 1017.9
20260904183024 74 56 7.0 15.0 0.00 0.00 0.00 21 1018.0
20260904181529 73 181 8.0 15.0 0.00 0.00 0.00 23 1018.0
20260904180032 73 190 4.0 16.0 0.00 0.00 0.00 23 1018.1
20260904174537 72 129 8.0 18.0 0.00 0.00 0.00 23 1018.0
20260904173042 72 129 9.0 16.0 0.00 0.00 0.00 22 1018.1
20260904171503 72 195 4.0 15.0 0.00 0.00 0.00 23 1018.0
20260904170019 70 171 7.0 16.0 0.00 0.00 0.00 24 1017.8
20260904164505 67 65 2.0 8.0 0.00 0.00 0.00 35 1017.9
20260904163010 60 198 1.0 5.0 0.00 0.00 0.00 50 1018.0
20260904161504 56 266 2.0 4.0 0.00 0.00 0.00 59 1018.1
20260904160008 54 297 2.0 4.0 0.00 0.00 0.00 62 1018.2
20260904154510 51 184 0.0 4.0 0.00 0.00 0.00 65 1018.3
20260904153012 49 197 1.0 5.0 0.00 0.00 0.00 68 1018.5
20260904151515 47 49 1.0 4.0 0.00 0.00 0.00 72 1018.5
20260904150013 45 166 0.0 2.0 0.00 0.00 0.00 73 1018.6
20260904144509 40 91 0.0 2.0 0.00 0.00 0.00 82 1018.7
20260904143011 39 45 0.0 2.0 0.00 0.00 0.00 84 1018.5
20260904141521 39 67 0.0 3.0 0.00 0.00 0.00 85 1018.5